GW6133 Weather Reports


Display with metric or nautical units.
time (UTC)temp
F
wind
direction
speed
MPH
gust
MPH
rain 1hr
in
rain 24hr
in
rain mn
in
humidity
%
barometer
mb
20260507142533 56 128 0.0 3.0 0.00 0.01 0.01 59 1007.8
20260507142030 57 145 1.0 7.0 0.00 0.01 0.01 58 1007.6
20260507141526 58 186 2.0 4.0 0.00 0.01 0.01 58 1007.7
20260507141023 58 167 3.0 6.0 0.00 0.01 0.01 56 1007.6
20260507140520 58 52 2.0 2.0 0.00 0.01 0.01 57 1007.5
20260507140018 58 148 4.0 6.0 0.00 0.01 0.01 56 1007.5
20260507135514 58 357 1.0 3.0 0.00 0.01 0.01 56 1007.5
20260507135011 58 150 0.0 3.0 0.00 0.01 0.01 56 1007.6
20260507134508 56 28 1.0 3.0 0.00 0.01 0.01 58 1007.5
20260507134003 56 28 2.0 6.0 0.00 0.01 0.01 59 1007.6
20260507133459 56 65 0.0 1.0 0.00 0.01 0.01 62 1007.5
20260507132958 56 134 0.0 1.0 0.00 0.01 0.01 63 1007.6
20260507132454 56 340 1.0 2.0 0.00 0.01 0.01 62 1007.7
20260507131951 56 222 1.0 3.0 0.00 0.01 0.01 63 1007.7
20260507131448 56 133 1.0 2.0 0.00 0.01 0.01 63 1007.9
20260507130944 55 42 0.0 1.0 0.00 0.01 0.01 63 1007.8
20260507130442 55 56 2.0 4.0 0.00 0.01 0.01 63 1008.1
20260507125940 55 69 2.0 4.0 0.00 0.01 0.01 63 1008.0
20260507125438 55 236 1.0 2.0 0.00 0.01 0.01 64 1007.9
20260507124935 54 57 2.0 6.0 0.00 0.01 0.01 65 1008.0
20260507124431 55 47 1.0 3.0 0.00 0.01 0.01 64 1008.2
20260507123930 54 207 0.0 4.0 0.00 0.01 0.01 67 1007.9
20260507123427 54 195 1.0 2.0 0.00 0.01 0.01 70 1008.0
20260507122923 53 358 0.0 2.0 0.00 0.01 0.01 70 1008.2
20260507122418 53 32 1.0 4.0 0.00 0.01 0.01 71 1008.1
20260507121915 53 71 0.0 6.0 0.00 0.01 0.01 71 1008.2
20260507121410 53 154 1.0 2.0 0.00 0.01 0.01 75 1008.3
20260507120907 52 64 0.0 2.0 0.00 0.01 0.01 75 1008.2
20260507120403 51 113 1.0 1.0 0.00 0.01 0.01 79 1008.3
20260507115900 51 132 0.0 0.0 0.00 0.01 0.01 80 1008.3
20260507115356 50 332 0.0 1.0 0.00 0.01 0.01 80 1008.1
20260507114851 49 42 0.0 2.0 0.00 0.01 0.01 81 1008.0
20260507114349 49 52 0.0 1.0 0.00 0.01 0.01 81 1008.0
20260507113846 49 42 0.0 0.0 0.00 0.01 0.01 82 1008.3
20260507113343 49 51 0.0 1.0 0.00 0.01 0.01 81 1008.3
20260507112840 49 74 0.0 0.0 0.00 0.01 0.01 81 1008.2
20260507112337 49 61 0.0 1.0 0.00 0.01 0.01 81 1008.0
20260507111836 49 45 0.0 1.0 0.00 0.01 0.01 81 1008.0
20260507111332 49 52 0.0 0.0 0.00 0.01 0.01 82 1007.9
20260507110828 49 122 0.0 1.0 0.00 0.01 0.01 82 1008.0
20260507110324 49 136 0.0 0.0 0.00 0.01 0.01 83 1008.1
20260507105821 49 53 0.0 0.0 0.00 0.01 0.01 83 1008.1
20260507105318 49 96 0.0 0.0 0.00 0.01 0.01 84 1007.9
20260507104815 49 58 0.0 0.0 0.00 0.01 0.01 83 1007.6
20260507104311 49 45 0.0 0.0 0.00 0.01 0.01 85 1007.6
20260507103807 49 44 0.0 0.0 0.00 0.01 0.01 84 1007.5
20260507103303 49 56 0.0 0.0 0.00 0.01 0.01 84 1007.3
20260507102800 48 32 0.0 2.0 0.00 0.01 0.01 84 1007.3
20260507102257 48 45 0.0 1.0 0.00 0.01 0.01 84 1007.4
20260507101753 48 56 0.0 1.0 0.00 0.01 0.01 85 1007.1
20260507101248 48 79 0.0 1.0 0.00 0.01 0.01 84 1007.4
20260507100745 48 44 0.0 2.0 0.00 0.01 0.01 84 1007.2
20260507100244 49 114 0.0 0.0 0.00 0.01 0.01 85 1007.4
20260507095741 49 147 0.0 0.0 0.00 0.01 0.01 84 1007.3
20260507095237 49 59 1.0 3.0 0.00 0.01 0.01 84 1007.2
20260507094735 49 14 0.0 0.0 0.00 0.01 0.01 85 1007.4
20260507094231 49 49 1.0 1.0 0.00 0.01 0.01 83 1007.5
20260507093728 49 49 0.0 1.0 0.00 0.01 0.01 84 1007.6
20260507093227 49 77 0.0 0.0 0.00 0.01 0.01 85 1007.7
20260507092725 49 143 1.0 1.0 0.00 0.01 0.01 86 1007.6
20260507092220 49 177 0.0 2.0 0.00 0.01 0.01 86 1007.5
20260507091717 49 135 0.0 1.0 0.00 0.01 0.01 87 1007.5
20260507091213 49 75 0.0 1.0 0.00 0.01 0.01 86 1007.6
20260507090708 49 33 1.0 1.0 0.00 0.01 0.01 88 1007.6
20260507090206 49 47 0.0 1.0 0.00 0.01 0.01 88 1007.4
20260507085703 49 116 1.0 2.0 0.00 0.01 0.01 87 1007.8
20260507085159 49 97 0.0 1.0 0.00 0.01 0.01 88 1007.4
20260507084656 49 54 0.0 1.0 0.00 0.01 0.01 87 1007.5
20260507084153 49 94 0.0 0.0 0.00 0.01 0.01 87 1007.5
20260507083650 49 199 1.0 2.0 0.00 0.01 0.01 88 1007.8
20260507083147 49 89 0.0 1.0 0.00 0.01 0.01 87 1007.2
20260507082643 49 144 0.0 1.0 0.00 0.01 0.01 87 1007.2
20260507082139 49 207 1.0 2.0 0.05 0.01 0.01 87 1007.3
20260507081636 49 100 0.0 0.0 0.05 0.01 0.01 87 1007.3
20260507081132 50 142 0.0 1.0 0.00 0.00 0.00 87 1007.5
20260507080629 50 110 0.0 0.0 0.00 0.00 0.00 86 1007.1
20260507080125 50 357 0.0 1.0 0.00 0.00 0.00 84 1007.0
20260507075625 50 56 0.0 1.0 0.00 0.00 0.00 83 1006.7
20260507075122 51 76 0.0 2.0 0.00 0.00 0.00 82 1007.2
20260507074619 51 105 0.0 1.0 0.00 0.00 0.00 81 1007.3
20260507074117 51 162 2.0 2.0 0.00 0.00 0.00 82 1007.3
20260507073613 51 150 0.0 1.0 0.00 0.00 0.00 82 1007.4
20260507073109 51 190 1.0 3.0 0.00 0.00 0.00 83 1007.5
20260507072607 51 65 0.0 2.0 0.00 0.00 0.00 83 1007.0
20260507072104 51 11 1.0 1.0 0.00 0.00 0.00 83 1006.9
20260507071601 51 309 0.0 2.0 0.00 0.00 0.00 82 1006.9
20260507071057 51 186 0.0 2.0 0.00 0.00 0.00 83 1006.6
20260507070555 52 31 2.0 3.0 0.00 0.00 0.00 81 1006.4
20260507070052 52 352 1.0 2.0 0.00 0.00 0.00 82 1006.4
20260507065548 52 125 0.0 4.0 0.00 0.00 0.00 82 1007.0
20260507065045 52 31 0.0 1.0 0.00 0.00 0.00 85 1006.9
20260507064543 52 304 0.0 0.0 0.00 0.00 0.00 87 1006.4
20260507064042 52 131 0.0 0.0 0.00 0.00 0.00 87 1006.3
20260507063538 52 54 0.0 0.0 0.00 0.00 0.00 87 1006.5
20260507063036 52 142 0.0 1.0 0.00 0.00 0.00 87 1006.6
20260507062532 52 85 0.0 0.0 0.00 0.00 0.00 87 1006.5
20260507062030 52 293 0.0 1.0 0.00 0.00 0.00 86 1006.3
20260507061527 52 50 0.0 1.0 0.00 0.00 0.00 86 1006.3
20260507061025 52 13 0.0 0.0 0.00 0.00 0.00 86 1006.5
20260507060523 52 50 1.0 2.0 0.00 0.00 0.00 86 1006.5
20260507060020 52 133 0.0 1.0 0.00 0.00 0.00 85 1006.4
20260507055519 52 48 0.0 0.0 0.00 0.00 0.00 85 1006.5
20260507055016 52 16 0.0 3.0 0.00 0.00 0.00 85 1006.4
20260507054512 52 70 0.0 1.0 0.00 0.00 0.00 85 1006.6
20260507054009 53 30 0.0 1.0 0.00 0.00 0.00 84 1007.1
20260507053507 53 54 3.0 3.0 0.00 0.00 0.00 84 1007.1
20260507053006 53 141 0.0 2.0 0.00 0.00 0.00 84 1007.0
20260507052503 53 55 1.0 2.0 0.00 0.00 0.00 85 1007.2
20260507051959 53 59 1.0 2.0 0.00 0.00 0.00 86 1007.0
20260507051457 53 164 0.0 1.0 0.00 0.00 0.00 88 1006.6
20260507050954 53 130 0.0 2.0 0.00 0.00 0.00 88 1006.9
20260507050450 53 160 0.0 2.0 0.00 0.00 0.00 89 1007.3
20260507045947 53 156 0.0 1.0 0.00 0.00 0.00 90 1007.1
20260507045444 53 196 0.0 1.0 0.00 0.00 0.00 89 1007.0
20260507044941 54 77 0.0 1.0 0.00 0.00 0.00 88 1006.7
20260507044438 54 93 0.0 0.0 0.00 0.00 0.00 89 1006.5
20260507043934 54 101 1.0 1.0 0.00 0.00 0.00 88 1006.7
20260507043430 54 152 1.0 2.0 0.00 0.00 0.00 88 1006.9
20260507042926 54 223 1.0 2.0 0.00 0.00 0.00 90 1007.0
20260507042423 55 70 0.0 1.0 0.00 0.00 0.00 89 1006.6
20260507041919 55 91 2.0 3.0 0.00 0.00 0.00 90 1006.5
20260507041416 55 111 0.0 2.0 0.00 0.00 0.00 92 1006.7
20260507040913 55 54 1.0 1.0 0.00 0.00 0.00 93 1006.9
20260507040409 56 151 0.0 0.0 0.00 0.00 0.00 92 1007.0
20260507035905 56 172 0.0 1.0 0.07 0.13 0.13 92 1006.7
20260507035401 56 156 1.0 1.0 0.12 0.13 0.13 91 1006.7
20260507034858 57 205 0.0 1.0 0.05 0.12 0.12 89 1006.5
20260507034355 57 95 1.0 3.0 0.00 0.11 0.11 87 1006.5
20260507033853 57 170 0.0 3.0 0.00 0.11 0.11 86 1006.3
20260507033351 57 151 1.0 2.0 0.00 0.11 0.11 86 1006.1
20260507032848 58 135 1.0 2.0 0.00 0.11 0.11 85 1006.0
20260507032344 58 35 3.0 4.0 0.00 0.11 0.11 85 1006.1
20260507031840 58 158 0.0 3.0 0.00 0.11 0.11 85 1005.9
20260507031337 58 38 0.0 3.0 0.00 0.11 0.11 88 1005.9
20260507030834 59 204 1.0 3.0 0.00 0.11 0.11 90 1005.6
20260507030332 59 43 1.0 4.0 0.00 0.11 0.11 92 1005.7
20260507025828 60 181 1.0 2.0 0.00 0.11 0.11 95 1005.6
20260507025326 60 127 0.0 0.0 0.00 0.11 0.11 96 1005.8
20260507024823 60 199 0.0 1.0 0.00 0.11 0.11 96 1005.8
20260507024320 60 206 0.0 1.0 0.00 0.11 0.11 96 1005.6
20260507023816 60 206 2.0 3.0 0.00 0.11 0.11 96 1005.4
20260507023313 60 171 0.0 0.0 0.00 0.11 0.11 96 1005.5
20260507022810 60 171 0.0 2.0 0.00 0.11 0.11 95 1005.5
20260507022306 60 132 0.0 2.0 0.00 0.11 0.11 95 1005.6
20260507021803 60 182 1.0 2.0 0.00 0.11 0.11 95 1005.4
20260507021259 60 191 1.0 2.0 0.00 0.11 0.11 95 1005.2
20260507020757 60 200 1.0 2.0 0.00 0.11 0.11 95 1005.1
20260507020253 60 188 0.0 1.0 0.00 0.11 0.11 95 1005.1
20260507015751 60 216 0.0 0.0 0.00 0.11 0.11 95 1005.2
20260507015248 60 193 0.0 2.0 0.00 0.11 0.11 95 1005.2
20260507014744 60 208 0.0 1.0 0.00 0.11 0.11 95 1005.2
20260507014241 60 206 1.0 3.0 0.00 0.11 0.11 95 1005.3
20260507013737 60 189 1.0 3.0 0.00 0.11 0.11 95 1005.2
20260507013235 60 213 1.0 1.0 0.00 0.11 0.11 95 1005.1
20260507012732 60 205 1.0 2.0 0.00 0.11 0.11 95 1005.2
20260507012227 60 156 0.0 1.0 0.00 0.11 0.11 95 1005.2
20260507011725 60 184 0.0 2.0 0.00 0.11 0.11 95 1005.3
20260507011222 60 169 0.0 2.0 0.00 0.11 0.11 95 1005.4
20260507010721 60 194 0.0 1.0 0.00 0.11 0.11 95 1005.2
20260507010217 60 216 0.0 1.0 0.00 0.11 0.11 95 1005.4
20260507005715 60 204 0.0 2.0 0.00 0.11 0.11 95 1005.3
20260507005211 60 190 1.0 2.0 0.00 0.11 0.11 95 1005.1
20260507004708 60 185 1.0 2.0 0.00 0.11 0.11 95 1005.1
20260507004206 60 200 1.0 1.0 0.00 0.11 0.11 95 1005.1
20260507003702 60 170 1.0 3.0 0.00 0.11 0.11 95 1005.2
20260507003157 60 244 0.0 1.0 0.00 0.11 0.11 95 1005.1
20260507002653 60 309 0.0 3.0 0.00 0.11 0.11 95 1005.1
20260507002149 60 202 0.0 3.0 0.00 0.11 0.11 95 1005.0
20260507001646 60 197 1.0 2.0 0.00 0.11 0.11 95 1005.0
20260507001144 60 219 0.0 1.0 0.00 0.11 0.11 96 1005.2
20260507000640 60 183 1.0 1.0 0.00 0.11 0.11 96 1005.0
20260507000135 60 125 0.0 2.0 0.00 0.11 0.11 96 1005.0
20260506235633 60 166 1.0 2.0 0.00 0.11 0.11 96 1004.9
20260506235133 60 225 2.0 2.0 0.00 0.11 0.11 96 1005.0
20260506234631 60 234 0.0 2.0 0.00 0.11 0.11 96 1004.8
20260506234128 60 252 1.0 4.0 0.00 0.11 0.11 96 1004.8
20260506233625 60 173 0.0 2.0 0.00 0.11 0.11 96 1004.9
20260506233122 60 127 0.0 2.0 0.00 0.11 0.11 96 1004.8
20260506232617 60 214 0.0 1.0 0.00 0.11 0.11 96 1004.9
20260506232113 60 240 1.0 2.0 0.07 0.11 0.11 96 1004.8
20260506231611 60 211 1.0 3.0 0.07 0.11 0.11 96 1004.7
20260506231109 60 174 1.0 2.0 0.07 0.10 0.10 96 1005.0
20260506230605 60 206 1.0 2.0 0.12 0.10 0.10 95 1005.0
20260506225559 60 202 2.0 2.0 0.00 0.08 0.08 95 1005.0
20260506225055 60 224 0.0 2.0 0.07 0.08 0.08 95 1005.1
20260506224552 60 192 2.0 4.0 0.07 0.08 0.08 94 1005.2
20260506224049 60 176 0.0 6.0 0.05 0.07 0.07 94 1005.4
20260506223545 60 206 1.0 3.0 0.05 0.07 0.07 94 1005.2
20260506223041 60 198 1.0 3.0 0.05 0.07 0.07 94 1005.2
20260506222538 60 225 2.0 3.0 0.00 0.06 0.06 94 1005.1
20260506222034 60 267 2.0 3.0 0.00 0.06 0.06 94 1005.1
20260506221532 60 208 2.0 3.0 0.00 0.06 0.06 93 1005.2
20260506221030 60 204 3.0 4.0 0.00 0.06 0.06 93 1005.2
20260506220526 60 218 1.0 4.0 0.00 0.06 0.06 93 1005.3
20260506220021 60 214 4.0 6.0 0.00 0.06 0.06 93 1005.1
20260506215519 60 186 1.0 4.0 0.07 0.06 0.06 93 1005.2
20260506215014 61 19 1.0 3.0 0.07 0.06 0.06 93 1005.2
20260506214511 61 353 1.0 2.0 0.00 0.05 0.05 93 1005.5
20260506214008 61 199 2.0 3.0 0.00 0.05 0.05 92 1005.3
20260506213507 61 189 3.0 10.0 0.00 0.05 0.05 91 1005.3
20260506213003 61 263 2.0 4.0 0.00 0.05 0.05 91 1005.2
20260506212500 61 212 2.0 6.0 0.00 0.05 0.05 91 1005.1
20260506211954 61 183 2.0 3.0 0.00 0.05 0.05 92 1005.4
20260506211451 61 72 0.0 2.0 0.00 0.05 0.05 92 1005.4
20260506210948 61 160 1.0 3.0 0.05 0.05 0.05 92 1005.4
20260506210444 61 137 3.0 4.0 0.05 0.05 0.05 91 1005.7
20260506205942 61 206 3.0 4.0 0.00 0.04 0.04 91 1005.6
20260506205438 61 211 0.0 6.0 0.00 0.04 0.04 92 1005.6
20260506204934 62 182 3.0 6.0 0.07 0.04 0.04 92 1005.9
20260506204432 61 147 2.0 7.0 0.07 0.04 0.04 91 1005.8
20260506203929 62 177 3.0 4.0 0.00 0.03 0.03 91 1005.9
20260506203426 62 216 2.0 4.0 0.00 0.03 0.03 91 1006.0
20260506202923 62 128 3.0 7.0 0.00 0.03 0.03 90 1005.8
20260506202420 62 336 2.0 4.0 0.05 0.03 0.03 90 1005.9
20260506201916 62 223 1.0 4.0 0.00 0.02 0.02 89 1006.0
20260506201414 63 60 1.0 3.0 0.00 0.02 0.02 88 1006.0
20260506200911 63 172 2.0 2.0 0.00 0.02 0.02 88 1006.0
20260506200406 63 193 2.0 3.0 0.00 0.02 0.02 86 1006.1
20260506195903 64 182 1.0 2.0 0.00 0.02 0.02 85 1006.0
20260506195400 64 215 1.0 4.0 0.00 0.02 0.02 85 1005.9
20260506194857 64 183 3.0 4.0 0.00 0.02 0.02 85 1006.0
20260506194354 64 195 1.0 3.0 0.00 0.02 0.02 85 1006.0
20260506193851 64 64 1.0 2.0 0.00 0.02 0.02 85 1005.9
20260506193348 64 340 0.0 6.0 0.00 0.02 0.02 85 1006.1
20260506192844 64 196 3.0 8.0 0.00 0.02 0.02 85 1006.2
20260506192341 64 190 2.0 3.0 0.00 0.02 0.02 86 1005.9
20260506191838 64 200 1.0 4.0 0.00 0.02 0.02 86 1006.0
20260506191335 64 216 2.0 3.0 0.00 0.02 0.02 87 1005.8
20260506190832 64 242 1.0 3.0 0.07 0.02 0.02 87 1005.7
20260506190328 64 147 2.0 2.0 0.07 0.02 0.02 87 1005.9
20260506185825 64 201 0.0 2.0 0.00 0.01 0.01 87 1006.1
20260506185322 64 197 1.0 2.0 0.00 0.01 0.01 86 1006.1
20260506184819 64 198 2.0 3.0 0.05 0.01 0.01 84 1006.0
20260506184316 64 138 2.0 3.0 0.05 0.01 0.01 84 1006.2
20260506183813 65 200 1.0 3.0 0.00 0.00 0.00 84 1006.3
20260506183308 65 194 3.0 3.0 0.00 0.00 0.00 81 1006.3
20260506182806 66 173 3.0 3.0 0.00 0.00 0.00 79 1006.4
20260506182306 66 139 2.0 4.0 0.00 0.00 0.00 78 1006.6
20260506181801 68 167 2.0 3.0 0.00 0.00 0.00 75 1006.4
20260506181258 69 181 4.0 6.0 0.00 0.00 0.00 67 1006.5
20260506180755 70 162 2.0 8.0 0.00 0.00 0.00 64 1006.5
20260506180251 70 184 3.0 4.0 0.00 0.00 0.00 63 1006.5
20260506175747 71 197 6.0 8.0 0.00 0.00 0.00 60 1006.5
20260506175244 71 199 1.0 8.0 0.00 0.00 0.00 61 1006.5
20260506174742 71 205 2.0 7.0 0.00 0.00 0.00 58 1006.3
20260506174239 71 168 4.0 10.0 0.00 0.00 0.00 59 1006.4
20260506173737 71 167 4.0 8.0 0.00 0.00 0.00 60 1006.4
20260506173233 73 206 3.0 6.0 0.00 0.00 0.00 56 1006.4
20260506172730 73 345 1.0 9.0 0.00 0.00 0.00 53 1006.2
20260506172226 73 139 5.0 8.0 0.00 0.00 0.00 53 1006.0
20260506171724 73 164 4.0 6.0 0.00 0.00 0.00 53 1006.2
20260506171222 74 196 3.0 7.0 0.00 0.00 0.00 52 1006.0
20260506170719 74 266 4.0 7.0 0.00 0.00 0.00 51 1006.1
20260506170215 74 146 3.0 8.0 0.00 0.00 0.00 52 1006.5
20260506165714 74 202 1.0 3.0 0.00 0.00 0.00 53 1006.3
20260506165210 74 217 5.0 7.0 0.00 0.00 0.00 52 1006.6
20260506164708 73 190 3.0 6.0 0.00 0.00 0.00 54 1006.5
20260506164205 73 138 4.0 7.0 0.00 0.00 0.00 54 1006.7
20260506163701 73 204 6.0 9.0 0.00 0.00 0.00 54 1006.7
20260506163156 72 184 2.0 8.0 0.00 0.00 0.00 55 1007.0
20260506162652 72 192 4.0 7.0 0.00 0.00 0.00 57 1006.7
20260506162150 72 190 3.0 7.0 0.00 0.00 0.00 57 1006.9
20260506161647 72 227 4.0 4.0 0.00 0.00 0.00 57 1007.1
20260506161144 72 229 2.0 6.0 0.00 0.00 0.00 58 1007.4
20260506160642 72 177 3.0 8.0 0.00 0.00 0.00 58 1007.5
20260506160138 71 215 1.0 6.0 0.00 0.00 0.00 59 1007.5
20260506155637 71 158 3.0 6.0 0.00 0.00 0.00 59 1007.6
20260506155134 70 220 1.0 4.0 0.00 0.00 0.00 61 1008.2
20260506153236 70 189 3.0 6.0 0.00 0.00 0.00 61 1008.0
20260506152733 70 198 2.0 3.0 0.00 0.00 0.00 61 1008.1
20260506152230 70 152 2.0 4.0 0.00 0.00 0.00 61 1008.2
20260506151729 70 192 3.0 7.0 0.00 0.00 0.00 61 1008.2
20260506151225 70 34 4.0 8.0 0.00 0.00 0.00 61 1008.3
20260506150721 70 259 1.0 4.0 0.00 0.00 0.00 61 1008.3
20260506150218 70 166 2.0 8.0 0.00 0.00 0.00 60 1008.2
20260506145716 70 181 2.0 8.0 0.00 0.00 0.00 61 1008.4
20260506145212 71 220 5.0 7.0 0.00 0.00 0.00 61 1008.2
20260506144710 70 217 3.0 7.0 0.00 0.00 0.00 61 1008.4
20260506144206 70 263 2.0 6.0 0.00 0.00 0.00 62 1008.5
20260506143704 69 156 2.0 4.0 0.00 0.00 0.00 62 1008.4
20260506143202 70 236 2.0 4.0 0.00 0.00 0.00 62 1008.5